Helicity
12 17 9 -11 -6 4 9 39 47 49 28 27 58 71 79 76 82 80 60 49 56 48 51 62 77 72 53 43 41 44 48 37 30 37 34 31 26 25 27 29 -8 24 52
8 11 11 -14 -1 14 1 30 60 69 41 26 14 18 38 46 39 57 63 72 51 36 35 53 49 77 71 69 57 51 50 46 38 36 38 25 22 23 30 19 -28 81 58
5 7 8 10 9 27 52 63 54 54 74 102 44 21 39 23 59 58 4 35 45 42 46 65 66 53 64 63 58 53 49 46 38 34 12 -7 19 19 26 16 39 67 47
-27 -15 3 0 5 1 14 23 47 32 103 63 74 68 71 113 130 153 74 -2 20 41 38 63 85 68 69 72 62 61 46 47 43 39 9 31 43 37 30 12 17 24 30
-29 -24 -4 -12 6 -16 5 27 35 37 49 92 87 83 136 101 92 25 -2 22 32 43 51 59 68 88 86 101 77 76 75 45 47 19 21 33 34 66 39 24 17 9 -10
-20 -18 7 9 3 -8 -12 3 -7 14 37 46 72 60 118 93 101 51 41 29 41 53 55 54 59 58 40 76 70 69 89 61 37 12 35 47 41 89 49 33 -1 81 95
4 -1 21 18 1 2 7 2 3 16 26 49 73 83 88 126 123 125 95 69 83 77 64 82 68 66 58 60 59 56 52 65 10 31 30 31 23 69 50 88 122 108 93
21 6 6 14 18 19 13 6 12 23 37 50 63 79 84 89 83 69 83 74 66 62 55 70 70 100 61 61 54 67 49 26 13 31 29 27 99 70 43 68 111 101 101
25 7 2 3 12 18 36 42 35 34 36 41 47 57 70 79 99 85 74 73 62 74 68 68 95 78 81 84 85 90 79 52 14 31 40 37 107 68 40 69 88 93 98
20 16 16 10 28 42 57 85 71 67 49 35 33 46 69 90 88 90 85 65 78 65 61 55 65 72 116 144 130 113 106 87 51 49 41 46 55 50 48 60 90 105 96
44 42 34 36 53 67 78 90 47 55 48 34 37 67 57 118 162 238 294 276 272 82 59 77 75 81 104 117 114 108 93 125 133 105 40 73 60 44 38 61 80 109 90
72 70 62 75 84 77 83 64 65 68 86 101 80 63 59 84 109 139 105 172 242 320 227 59 83 84 64 79 77 62 91 113 86 80 66 48 43 49 32 44 82 79 86
95 89 91 87 89 74 83 59 76 81 78 87 81 69 75 85 77 84 61 31 -133 0 -30 192 51 64 91 66 73 68 83 106 128 90 95 36 44 50 40 46 58 73 68
87 84 87 88 73 72 55 73 75 80 81 68 56 36 30 41 37 79 123 189 153 76 -55 -4 -51 -20 222 38 69 91 64 103 158 187 149 111 34 52 46 31 40 77 68
94 94 86 57 69 62 60 69 81 77 77 60 53 55 49 58 69 62 58 44 67 -29 -59 -41 -9 -22 24 38 71 84 67 63 73 180 248 133 58 52 62 35 27 61 78
62 56 50 68 70 70 81 91 91 94 85 83 79 79 80 67 60 66 67 56 64 56 4 12 31 57 -20 51 4 20 39 57 78 103 138 218 238 106 70 61 26 36 64
55 62 83 88 93 86 89 93 100 103 98 90 76 81 89 75 77 80 81 79 85 93 76 97 78 40 -2 -4 20 64 64 55 51 91 120 161 174 214 116 58 45 45 54
66 85 101 109 114 127 132 130 134 127 120 114 98 91 89 92 80 71 76 93 91 95 105 130 123 132 104 115 74 57 72 56 48 43 80 155 141 262 70 86 48 47 49
107 113 144 146 150 163 176 180 179 164 157 138 109 85 66 69 73 75 74 78 74 89 96 112 112 106 100 104 103 80 151 145 87 101 98 113 153 139 150 137 82 57 56
139 142 169 164 175 177 171 168 154 146 139 112 86 63 24 28 27 65 66 51 53 69 77 98 114 119 108 107 90 72 85 104 112 122 93 127 132 146 153 149 96 94 64
158 155 177 181 176 164 154 152 155 164 148 112 68 33 6 35 36 32 45 50 39 58 76 88 99 123 142 119 90 118 100 109 117 191 145 109 119 184 162 169 166 100 128
156 167 187 180 183 172 174 197 203 186 155 117 77 37 7 7 14 11 23 36 61 74 79 98 100 96 97 109 127 130 112 155 147 164 145 154 100 136 182 164 116 83 108
138 157 167 200 197 196 223 207 184 161 127 77 35 11 27 8 -3 16 25 11 22 30 63 89 106 115 143 116 69 139 168 229 203 179 169 145 130 153 139 198 159 149 145
62 124 176 197 202 206 202 198 158 129 101 83 88 88 66 65 44 28 28 18 17 31 45 44 62 99 119 164 139 80 81 142 176 142 189 245 242 143 101 132 188 213 135
87 105 118 146 178 201 184 132 112 85 66 66 88 108 99 81 81 80 77 81 71 67 63 67 62 56 67 101 123 141 124 86 113 190 154 232 212 219 221 131 112 214 160
87 88 117 160 177 181 181 144 121 112 98 112 126 124 117 99 124 122 139 152 143 141 131 123 104 84 73 65 74 92 151 168 158 160 182 192 210 198 115 165 161 134 202
Wind_Speed
32 25 23 25 27 28 27 27 29 30 29 14 10 12 13 14 13 13 13 12 10 9 7 7 8 10 11 14 14 15 14 14 14 14 14 15 16 17 16 15 13 15 14
28 25 24 27 27 28 29 29 31 32 31 33 32 25 20 21 25 23 20 17 19 15 15 12 12 11 12 13 15 15 14 13 14 13 13 17 19 19 15 15 19 14 13
27 25 25 27 26 25 27 32 34 33 31 35 47 29 25 28 32 51 45 33 25 24 20 17 16 15 15 15 15 14 14 14 17 17 16 22 20 20 18 16 19 15 14
28 27 27 27 28 28 26 26 30 36 43 40 48 53 32 27 50 61 69 50 38 32 27 23 16 14 20 18 15 14 17 16 19 20 26 31 25 20 18 17 15 12 11
29 29 29 28 30 30 29 29 31 34 38 35 38 46 41 29 13 9 11 18 39 37 30 26 24 21 18 20 19 18 18 21 20 24 33 32 29 16 18 16 12 9 9
30 30 31 31 31 32 33 31 31 31 32 33 38 47 37 33 30 20 17 10 17 21 21 23 26 25 26 23 31 30 24 27 26 30 34 31 35 17 17 14 15 7 7
31 31 33 34 33 33 36 36 35 35 36 37 39 44 44 36 36 40 44 37 30 29 26 26 20 26 29 33 36 37 35 31 35 36 37 35 32 20 19 17 8 8 9
34 34 34 33 35 37 39 39 40 41 41 43 45 45 47 47 42 38 39 39 39 35 32 27 23 24 26 30 37 38 39 40 42 43 42 39 29 25 19 16 15 14 12
36 35 34 36 37 37 41 44 44 44 44 43 44 45 46 47 48 50 50 48 42 38 36 33 29 28 25 27 36 35 46 49 51 45 46 46 32 33 34 15 15 17 15
37 37 38 38 39 41 42 44 46 46 46 46 46 46 46 44 47 49 51 53 53 48 45 41 37 33 32 35 41 47 48 52 57 51 51 53 41 40 41 25 19 18 18
35 39 40 40 40 41 40 43 43 43 43 41 41 43 41 42 46 47 49 56 61 58 53 47 41 36 35 38 44 48 50 46 51 54 55 53 51 50 45 32 26 22 24
36 39 41 41 40 38 36 37 38 40 40 41 41 40 40 39 39 41 53 65 60 66 70 54 46 43 42 43 41 48 51 53 54 66 63 56 58 55 46 41 35 29 27
36 40 44 44 42 38 36 35 36 36 38 42 44 44 43 44 46 47 52 67 86 73 49 57 57 49 54 52 52 55 58 64 67 72 78 67 61 64 55 46 36 33 34
33 35 39 39 36 34 34 35 35 36 38 40 43 44 45 46 46 43 38 33 51 69 75 75 68 49 68 57 53 51 54 54 51 55 56 74 65 68 66 58 43 39 39
29 30 32 33 34 33 33 34 35 36 38 40 43 46 45 46 47 45 48 49 44 49 65 74 69 68 57 63 60 58 58 58 56 47 50 71 72 70 71 69 54 43 41
22 26 29 30 30 31 32 33 34 36 37 40 42 44 44 42 42 42 43 44 44 37 49 58 67 58 70 63 63 60 61 64 59 58 55 52 65 77 75 77 73 53 45
21 23 26 28 27 28 29 32 34 36 38 40 40 43 44 43 43 43 45 48 49 48 44 19 40 58 71 68 66 62 69 66 62 56 58 63 62 67 76 79 80 73 57
17 19 21 24 24 26 28 29 32 34 36 39 40 42 44 45 45 46 48 49 48 47 47 48 49 51 49 52 59 65 62 59 56 60 58 58 67 54 68 72 82 89 74
14 17 20 21 23 24 26 29 30 32 35 37 38 41 43 46 48 50 51 51 51 51 51 52 52 48 53 50 50 62 53 56 60 58 57 54 57 56 64 77 79 96 88
15 18 21 23 24 25 27 29 31 32 34 36 38 40 42 44 48 52 53 53 53 54 54 55 55 53 53 54 58 57 54 52 56 55 57 53 50 57 67 79 80 84 93
19 20 22 23 26 29 32 35 36 37 37 40 41 42 42 47 49 55 58 59 58 58 57 57 58 59 59 60 63 65 63 58 55 55 61 59 59 54 61 64 83 80 81
14 15 18 21 23 26 30 33 36 37 40 44 44 44 47 49 53 58 61 63 62 64 64 62 63 63 62 61 64 70 72 67 61 63 59 60 65 60 60 67 65 85 84
14 15 17 21 23 25 29 33 35 36 40 42 42 48 50 53 57 59 61 63 63 62 65 67 68 68 71 66 59 62 69 73 82 63 63 61 60 64 66 64 73 84 84
17 17 21 24 26 28 30 35 38 42 46 47 51 54 58 58 59 61 63 63 63 62 64 65 65 71 73 77 69 61 58 66 75 91 65 66 62 65 68 70 75 85 81
19 19 22 25 29 31 32 35 39 45 49 52 54 56 59 60 60 62 63 61 62 64 66 67 68 67 68 74 73 73 71 68 69 79 101 86 71 70 67 75 76 78 79
22 23 26 30 33 34 37 38 42 48 53 55 55 58 59 60 60 63 65 66 66 67 69 72 74 73 73 73 74 76 79 79 80 79 87 91 93 83 79 77 80 85 84
Wind_Direction
322 329 340 339 328 314 313 325 319 307 302 314 308 294 283 282 289 295 297 304 311 320 352 24 16 358 6 346 347 349 360 356 355 8 3 355 353 355 355 355 11 21 16
333 347 346 322 320 333 314 317 319 312 308 299 294 295 291 291 289 285 282 286 295 299 309 331 331 343 346 360 349 337 341 346 334 341 342 329 323 326 345 344 306 343 344
6 16 19 17 7 351 345 319 307 301 314 310 284 299 291 290 285 274 264 274 281 288 299 316 320 322 328 347 5 357 338 331 318 316 317 304 314 317 315 323 316 339 326
10 10 10 5 354 345 345 338 323 299 302 304 289 291 309 321 295 307 245 260 273 281 294 300 325 327 316 336 353 332 316 322 314 312 300 292 305 313 312 313 323 344 345
4 2 1 1 345 339 338 346 332 320 314 317 309 300 315 327 336 245 205 231 280 281 301 310 307 319 332 328 324 311 306 304 310 306 296 296 300 319 311 311 325 339 13
360 3 2 355 356 346 338 345 335 332 331 325 321 302 320 323 322 311 302 282 310 319 324 321 319 320 320 315 297 289 293 292 298 299 295 301 292 313 309 306 304 340 9
359 356 354 351 350 350 350 349 339 337 333 331 327 318 319 323 312 303 297 307 310 310 315 309 313 309 312 301 286 281 284 287 289 292 292 294 295 304 300 299 309 310 322
357 357 353 352 351 350 349 347 342 338 333 328 324 323 319 314 314 308 304 304 303 306 304 307 302 311 312 304 289 285 284 280 280 285 288 290 295 294 293 287 282 287 296
350 346 343 339 343 346 343 337 335 332 328 329 326 321 318 314 310 306 302 300 302 301 299 298 298 302 300 299 293 295 281 279 278 282 285 284 291 286 285 276 278 276 278
341 341 338 339 339 338 338 340 337 332 327 324 322 322 319 319 312 306 304 298 295 293 293 292 292 292 290 285 288 285 285 281 278 280 280 281 287 281 278 278 273 268 268
342 338 338 337 338 338 340 339 339 338 335 332 332 329 329 326 317 312 312 307 300 291 290 287 287 286 284 285 284 284 283 288 288 281 280 282 281 278 274 276 271 264 265
346 346 344 341 339 339 342 344 345 343 342 342 340 339 336 331 325 309 303 297 299 295 298 288 286 284 284 283 284 283 283 284 287 277 280 281 278 274 273 273 270 265 262
346 343 339 338 339 341 345 345 346 347 345 343 339 337 334 331 326 319 320 300 282 283 310 306 284 284 282 282 282 282 284 285 285 276 276 274 275 270 271 271 265 260 263
351 354 347 351 354 355 359 2 2 357 355 353 354 354 347 337 336 335 346 336 311 278 285 285 266 298 279 281 284 285 286 283 291 286 279 270 275 269 267 268 264 258 258
11 12 16 21 21 24 27 25 22 17 12 10 7 2 1 358 354 350 345 343 355 315 287 293 304 282 290 280 286 288 286 286 285 287 278 269 271 271 266 264 264 255 252
75 60 41 31 28 25 24 22 19 15 12 9 9 8 8 8 6 6 3 2 358 349 323 303 298 303 291 289 291 288 287 287 285 284 284 278 274 269 267 262 261 257 248
53 40 29 23 23 21 18 14 11 9 7 5 5 5 5 5 4 1 356 351 352 352 346 333 322 303 285 287 293 291 287 289 286 285 282 281 280 269 268 261 260 258 251
26 21 13 9 11 8 6 4 4 3 2 0 360 359 358 358 357 356 351 348 347 348 347 341 336 322 322 309 300 293 291 294 292 287 287 283 278 276 265 263 257 254 254
7 1 356 357 357 358 358 358 356 354 353 353 354 353 353 351 350 348 345 345 343 340 339 338 335 332 322 320 318 304 299 295 293 292 290 287 281 274 263 265 258 251 252
346 344 341 340 340 341 342 341 341 341 342 344 346 345 345 345 345 344 342 341 339 337 335 333 329 327 323 320 316 311 305 299 295 292 291 290 283 276 269 259 261 254 249
329 329 328 328 329 327 325 325 326 326 329 330 332 337 338 338 339 337 335 333 333 331 330 330 327 324 321 320 314 310 307 300 293 292 291 288 283 278 271 264 259 257 250
296 303 316 318 320 321 322 322 322 321 322 324 326 327 328 329 329 330 329 327 325 323 321 322 321 319 319 320 315 312 303 301 298 295 291 288 284 279 274 266 261 253 251
281 290 298 307 311 311 315 318 318 318 318 320 321 323 322 323 323 323 323 322 320 319 318 317 316 315 313 316 317 311 305 298 299 301 297 290 285 280 276 267 261 254 253
291 292 298 302 304 306 308 309 309 311 313 315 316 318 321 321 320 320 319 318 316 315 313 314 314 312 310 307 311 311 304 302 298 291 296 297 294 282 276 272 263 257 256
314 303 300 301 301 303 305 304 307 307 311 313 314 315 317 319 319 318 318 317 314 311 310 309 309 308 307 306 305 305 302 299 296 292 286 287 290 288 284 272 267 261 257
325 311 306 303 299 300 304 304 303 305 308 311 313 315 318 321 320 319 318 317 314 311 309 307 304 303 302 301 300 299 297 295 294 292 288 285 282 283 279 278 269 263 257